Temperature
9 8 8 9 10 10 11 11 11 11 12 11 11 11 12 12 12 11 11 11 11 10 10 10 10 10 10 10 10 10 10 11 11 11 11 11 11 12 12 12 12 12 12 12
8 8 10 10 10 10 10 10 10 11 12 11 11 11 11 12 11 11 11 11 10 10 10 10 10 9 9 9 9 9 10 10 10 10 10 11 11 11 11 11 12 12 12 12
8 9 10 10 10 10 10 10 10 10 11 11 10 10 11 11 11 11 11 10 10 9 9 9 9 9 9 9 9 9 9 9 10 10 10 10 10 11 11 11 11 11 11 11
9 10 10 10 10 10 9 10 10 10 9 9 10 9 10 11 11 10 10 10 9 9 9 9 9 8 8 8 8 9 9 9 9 9 9 10 10 10 10 10 10 11 11 11
9 9 9 9 10 10 9 10 10 10 9 9 10 9 10 10 10 10 10 10 9 8 8 8 8 8 8 8 8 8 8 9 9 9 9 9 9 9 10 10 10 10 10 10
9 10 9 9 10 10 10 9 10 9 9 8 10 9 9 9 10 10 10 9 8 8 8 8 8 8 8 8 8 8 8 8 8 8 8 9 9 9 9 9 9 9 9 10
9 10 10 10 9 9 9 8 8 8 8 9 11 10 10 10 10 10 9 9 8 8 8 7 7 7 7 7 7 7 7 8 8 8 8 8 8 9 9 9 9 9 9 9
8 8 9 9 9 8 9 8 8 8 9 9 10 9 10 10 10 9 9 8 8 7 7 7 7 7 7 7 7 7 7 7 7 7 8 8 8 8 8 8 8 8 8 8
8 8 10 10 9 9 8 8 9 8 8 8 10 11 10 10 9 9 8 8 7 7 7 7 7 7 6 6 6 6 6 7 7 7 7 7 7 8 8 8 8 8 8 8
9 8 9 10 9 9 9 8 8 7 8 9 10 10 9 9 9 8 8 8 7 7 7 7 6 6 6 6 6 6 6 6 6 7 7 7 7 7 7 7 7 8 8 8
9 7 8 9 9 9 8 8 8 8 8 8 9 10 11 10 9 8 8 8 7 7 7 6 6 6 6 6 6 6 6 6 6 6 6 7 7 7 7 7 7 7 7 7
9 8 7 9 10 9 9 9 8 7 8 8 8 9 11 10 9 9 8 8 7 7 6 6 6 6 6 6 6 6 6 6 6 6 6 6 6 6 6 6 6 6 7 7
8 7 6 8 8 8 8 9 9 8 7 7 7 9 10 9 9 9 8 8 7 7 6 6 6 5 5 5 5 5 5 5 6 6 6 6 6 6 6 6 6 6 6 6
8 7 7 7 8 8 8 8 8 7 5 6 8 9 9 9 8 8 8 8 7 7 6 6 5 5 5 5 5 5 5 5 5 5 5 5 5 5 5 5 6 6 6 6
8 7 7 8 9 9 8 8 8 7 7 6 7 9 9 9 8 8 8 8 7 7 6 6 5 5 5 5 5 5 5 5 5 5 5 5 5 5 5 5 5 5 5 5
8 7 7 7 9 9 8 8 8 8 8 8 8 8 9 9 9 9 8 8 7 7 6 6 5 5 5 5 5 5 5 5 5 5 5 5 5 5 5 5 5 5 5 5
7 7 6 6 8 8 7 8 8 8 8 8 7 8 9 9 8 8 8 8 7 7 6 6 5 5 5 5 5 5 5 5 5 5 5 5 5 5 5 5 5 5 5 5
6 6 5 5 6 6 9 10 9 8 8 8 8 8 9 9 9 9 8 8 7 7 6 6 6 5 5 5 5 5 5 5 5 5 5 5 5 5 5 4 4 4 4 4
6 6 5 5 6 7 9 9 9 8 8 8 8 8 9 9 8 8 8 8 7 7 6 6 6 5 5 5 5 5 5 5 4 5 5 5 4 4 4 4 4 4 4 3
6 5 5 5 5 6 9 9 9 8 7 8 8 8 8 8 6 7 8 8 7 7 6 6 6 5 5 5 5 4 4 4 5 5 4 4 4 4 4 4 4 4 3 3
4 4 4 4 5 7 9 8 8 7 8 9 9 9 8 7 7 8 8 7 7 7 6 6 6 5 5 5 4 4 4 4 4 4 4 4 4 4 4 4 3 3 3 3
5 5 5 5 5 6 8 7 7 7 9 9 9 8 8 8 8 8 7 7 7 6 6 6 6 5 5 5 4 4 4 4 4 4 4 4 4 4 3 3 3 3 3 2
6 7 6 6 7 9 9 9 9 9 9 9 8 8 8 7 7 7 7 6 6 6 6 6 5 5 5 4 4 4 4 4 4 4 4 3 3 3 3 3 3 2 2 2
7 7 6 6 7 9 9 9 9 9 8 8 8 8 7 7 7 7 6 6 6 6 6 5 5 5 5 4 4 4 4 4 4 3 3 3 3 3 3 2 2 2 2 2
6 6 5 5 6 8 9 9 9 9 8 8 8 7 7 7 6 6 6 6 6 6 5 5 5 5 5 4 4 4 4 3 3 3 3 3 2 2 2 2 2 2 1 1
5 6 5 6 7 7 8 9 9 8 8 8 7 7 7 7 6 6 6 6 6 5 5 5 5 5 4 4 4 4 4 3 3 3 2 2 2 2 2 2 1 1 1 1
Wind_Speed
2 1 1 2 3 5 5 4 5 4 2 5 8 9 7 5 5 5 4 3 3 2 1 1 1 2 2 3 3 2 2 3 2 1 1 2 1 1 1 2 3 2 2 2
1 1 1 1 3 4 5 5 4 3 2 5 7 10 8 6 5 4 4 3 3 2 1 1 1 2 2 2 3 3 2 3 2 1 1 1 1 1 1 1 2 2 2 2
1 1 2 2 3 4 6 5 4 4 5 6 6 8 8 4 4 3 3 3 1 1 1 1 1 2 2 2 3 3 2 2 2 2 0 1 1 1 1 1 1 2 2 2
1 1 1 3 3 4 4 3 5 6 4 3 3 5 4 3 3 3 2 1 1 1 1 1 1 2 2 2 2 3 2 2 1 1 1 2 2 2 1 1 1 2 2 2
1 2 2 3 3 4 3 5 6 7 6 5 5 5 4 2 3 3 2 1 0 1 1 2 2 2 2 2 2 3 2 1 1 1 2 2 1 2 2 2 2 2 2 2
2 1 1 2 3 4 4 4 6 5 3 5 6 6 4 3 4 3 1 1 1 1 1 1 3 3 2 3 3 3 3 2 1 1 2 3 3 3 3 2 2 1 1 1
1 3 2 1 3 2 2 2 2 2 4 4 3 4 4 2 1 1 0 1 1 1 1 1 2 2 2 3 2 2 3 3 3 2 2 2 2 2 3 2 2 2 1 1
2 1 3 1 1 2 3 2 2 3 3 2 2 4 2 4 3 2 1 1 1 1 1 1 2 2 2 2 2 3 3 3 3 3 2 2 2 1 1 1 1 1 1 0
3 2 1 2 1 2 2 2 1 2 4 4 4 3 2 3 3 1 1 1 1 0 1 1 1 2 2 2 2 3 3 3 4 4 3 3 3 3 2 2 2 1 1 0
3 4 3 2 2 3 3 3 2 2 3 4 4 3 2 3 3 2 1 1 0 1 1 1 1 2 2 2 2 3 3 3 3 4 4 4 4 3 2 2 2 2 1 1
3 3 3 2 3 2 3 2 3 3 3 3 4 2 1 4 4 2 1 1 1 1 1 1 1 2 2 3 3 3 3 4 4 4 4 4 3 3 3 3 3 2 2 2
2 2 4 4 2 1 2 3 2 2 4 3 4 4 3 4 4 3 1 1 2 2 1 1 1 2 2 2 3 3 3 3 3 3 3 3 3 3 3 3 2 2 2 2
4 3 4 2 2 2 3 4 4 3 3 4 4 4 2 3 2 1 1 2 2 2 2 2 1 1 2 2 2 2 3 3 3 3 3 3 3 3 3 2 2 2 2 1
3 4 5 5 4 3 5 6 6 4 4 5 6 6 4 2 2 2 2 2 2 3 3 3 2 1 2 2 1 2 2 2 2 2 2 2 2 3 2 2 2 2 2 1
3 5 7 11 12 10 11 10 8 9 8 7 8 9 7 4 4 3 2 2 3 3 3 3 3 2 1 1 1 1 1 2 2 2 2 2 2 2 2 2 2 2 2 2
3 5 8 9 9 9 11 12 12 11 11 12 12 12 7 5 3 3 4 4 4 4 4 4 3 2 2 2 2 1 1 2 1 1 1 2 2 2 2 2 2 2 2 2
3 4 4 6 7 8 9 10 11 8 8 8 11 8 4 3 4 5 5 5 5 4 3 4 4 4 3 2 2 2 1 1 1 1 1 1 1 1 1 2 2 2 2 2
5 4 3 5 7 7 6 1 4 7 8 9 9 8 5 5 4 3 4 5 5 4 4 4 4 4 3 3 2 2 2 2 2 1 1 1 1 1 1 1 1 1 1 1
8 5 4 3 5 9 5 4 4 5 6 8 9 8 5 2 2 3 4 4 5 4 4 4 4 4 4 4 3 3 3 2 2 1 1 0 0 0 0 1 1 1 1 1
7 6 5 4 5 6 4 3 3 2 5 5 6 6 4 1 2 4 2 3 3 3 3 3 4 4 4 4 4 3 3 3 2 2 1 1 1 1 1 1 1 0 1 1
5 6 9 8 7 8 4 5 5 3 5 1 3 4 4 5 5 3 2 3 3 3 4 4 4 4 5 5 4 4 3 4 3 2 1 1 1 1 1 0 0 0 0 1
8 7 7 7 8 9 5 7 6 6 2 1 2 3 4 5 4 2 2 3 4 4 4 5 4 4 4 5 5 5 4 4 3 3 2 2 2 1 1 1 0 0 0 0
9 9 5 9 10 4 8 7 6 2 3 3 4 4 4 5 5 4 4 4 4 4 4 5 5 4 4 5 6 6 5 4 3 3 3 3 2 2 1 1 1 0 0 1
6 6 5 7 9 7 7 8 7 6 6 5 4 4 5 6 6 5 5 4 4 5 5 5 5 5 5 4 5 5 4 4 4 4 3 3 2 2 1 1 1 1 1 1
7 4 6 9 10 9 10 10 9 7 7 7 6 6 6 6 7 6 5 5 5 4 4 5 6 6 6 5 5 4 4 5 4 4 3 3 3 2 2 2 2 2 2 2
10 12 10 11 8 7 7 6 6 6 7 7 7 7 7 7 7 7 6 5 5 5 5 5 6 6 6 6 5 5 5 5 5 4 3 3 2 2 2 2 1 2 2 2
Wind_Direction
189 189 207 229 255 294 303 276 272 273 258 256 253 262 263 245 248 260 261 264 283 287 318 19 357 343 351 354 349 336 318 320 315 297 235 194 172 174 159 161 153 158 162 162
114 239 297 300 283 291 294 283 275 280 264 275 270 270 264 244 235 248 269 275 272 292 320 2 12 18 10 0 352 335 331 319 305 280 248 201 172 168 160 154 144 151 149 144
41 360 328 295 288 293 289 286 300 303 302 264 273 274 244 226 207 217 247 261 282 268 291 347 5 11 359 356 347 329 320 303 303 299 253 125 137 121 112 119 112 118 115 119
332 339 307 280 279 290 288 314 304 297 293 272 249 282 242 196 195 207 228 241 329 332 336 13 18 358 355 353 344 335 335 317 290 264 179 173 179 165 183 156 136 114 92 90
348 357 318 296 308 306 294 310 283 270 272 278 241 249 265 167 229 233 219 193 113 8 4 4 2 6 6 8 349 341 339 327 284 223 173 173 167 160 151 133 131 127 109 92
263 245 297 301 305 273 292 299 276 248 254 262 226 219 262 199 231 238 203 111 71 15 12 2 6 3 5 19 15 0 5 27 25 118 152 152 152 148 144 142 152 137 137 131
280 191 170 234 300 264 275 311 305 232 224 244 186 216 252 156 109 194 203 60 44 2 349 19 5 346 7 28 28 19 26 32 28 53 90 113 126 139 142 158 157 161 169 154
320 272 161 181 292 303 271 273 301 296 289 299 232 240 220 121 108 93 96 102 51 5 11 19 6 354 17 33 40 38 40 35 30 36 51 74 91 112 125 127 135 152 123 92
334 314 133 155 224 286 285 244 305 295 285 271 235 206 151 123 125 137 173 174 198 24 30 29 25 30 42 40 42 49 49 41 37 39 50 62 76 80 85 81 87 77 81 93
321 297 268 172 190 221 269 308 287 258 295 291 261 218 218 182 191 190 175 162 109 76 51 57 51 45 48 46 43 54 54 48 41 40 49 53 57 58 60 68 65 63 50 46
305 293 284 215 215 219 198 230 248 265 268 285 298 284 59 156 159 169 177 158 125 84 67 61 51 55 58 51 51 56 53 48 44 43 49 58 60 67 63 65 62 57 53 53
324 297 278 255 166 123 248 253 250 264 281 261 274 280 70 92 119 141 168 170 150 148 129 97 78 80 70 61 54 60 62 52 44 47 50 56 53 57 64 64 60 58 51 55
331 282 296 272 169 186 241 243 245 269 292 262 259 264 82 89 95 153 198 201 183 170 162 156 145 129 110 85 68 64 69 60 44 48 45 47 47 51 52 53 63 73 68 65
313 269 246 261 285 281 260 250 232 221 235 262 249 273 272 243 252 261 231 204 190 178 179 181 175 170 134 109 91 83 74 70 57 57 54 48 43 48 47 41 50 65 62 64
270 268 268 272 275 271 262 255 238 227 229 242 267 287 283 262 245 246 235 208 199 195 191 190 181 181 158 137 127 124 113 92 74 68 63 49 44 54 52 37 34 43 42 33
262 277 291 278 261 256 261 251 241 239 238 247 265 277 266 261 236 231 225 213 216 212 201 192 180 172 175 174 165 138 125 113 102 85 74 55 54 55 54 40 37 42 43 33
267 281 300 284 298 298 266 238 220 223 222 227 245 255 265 255 240 234 225 215 214 208 202 191 184 184 184 181 163 161 148 124 114 100 83 61 58 53 40 27 32 36 28 13
253 272 268 287 311 265 244 160 197 220 237 230 245 261 260 258 255 242 223 215 219 206 194 190 181 176 174 166 160 161 152 146 139 125 103 82 65 43 28 33 27 13 2 339
217 236 259 269 279 277 256 200 190 215 257 227 237 252 254 274 304 260 224 208 209 201 192 186 180 174 167 168 167 163 162 158 154 156 140 118 83 359 360 15 347 347 360 344
207 223 244 251 257 257 257 142 129 119 273 233 213 234 229 163 252 258 227 190 189 179 173 178 174 166 167 172 165 174 180 180 191 192 192 194 190 209 248 272 290 329 337 323
188 211 223 238 251 264 238 146 126 177 248 204 190 214 203 207 227 247 178 174 181 183 182 177 174 178 178 171 169 186 192 198 199 184 181 189 195 211 223 241 276 294 315 329
192 200 207 208 228 251 175 151 190 219 208 201 213 222 222 238 252 247 209 200 186 186 186 182 179 185 178 169 173 189 204 201 180 177 189 199 203 208 202 192 255 318 67 335
208 209 209 210 225 240 180 204 222 223 231 232 227 236 229 242 248 243 228 217 205 196 192 185 180 182 183 180 181 197 202 180 175 183 195 199 201 202 190 186 199 209 216 241
237 219 237 261 259 256 233 235 238 233 234 240 237 240 230 238 247 246 233 222 212 203 195 186 179 185 194 190 186 192 186 175 177 189 197 194 197 202 194 189 193 199 215 230
241 219 232 253 264 276 259 243 239 234 229 232 235 233 232 236 244 243 235 222 213 206 196 187 191 197 198 190 192 185 177 173 182 191 195 196 195 196 201 202 217 222 224 216
223 228 231 244 233 233 254 254 239 234 234 230 231 237 234 226 234 239 237 225 210 203 195 196 199 201 197 188 191 185 176 173 179 191 194 192 190 195 205 209 248 267 252 262
Height
1483 1485 1485 1484 1483 1482 1480 1481 1481 1478 1476 1478 1477 1475 1472 1472 1472 1471 1471 1471 1470 1470 1470 1470 1469 1469 1469 1468 1468 1468 1469 1469 1470 1471 1472 1473 1474 1476 1478 1480 1483 1485 1488 1490
1485 1485 1483 1482 1482 1481 1481 1482 1481 1478 1476 1476 1475 1472 1469 1467 1468 1468 1468 1468 1468 1468 1468 1467 1467 1466 1466 1466 1466 1466 1466 1466 1467 1468 1469 1470 1471 1473 1475 1477 1479 1481 1484 1486
1485 1485 1483 1483 1482 1483 1482 1482 1481 1480 1477 1475 1475 1472 1465 1463 1464 1465 1466 1466 1466 1466 1465 1465 1465 1465 1464 1463 1463 1463 1463 1463 1464 1465 1466 1467 1469 1470 1472 1474 1476 1478 1480 1483
1484 1483 1483 1483 1483 1484 1483 1480 1480 1480 1482 1480 1477 1479 1463 1461 1462 1463 1464 1464 1464 1464 1464 1463 1463 1462 1462 1461 1461 1461 1460 1460 1461 1462 1462 1464 1465 1466 1469 1471 1473 1475 1477 1479
1485 1484 1484 1484 1483 1484 1483 1480 1480 1480 1481 1481 1475 1478 1467 1461 1462 1461 1462 1462 1462 1462 1462 1462 1461 1461 1460 1459 1459 1458 1458 1458 1458 1459 1459 1461 1463 1465 1467 1469 1470 1472 1474 1477
1485 1484 1485 1485 1483 1483 1482 1481 1478 1478 1481 1483 1471 1473 1466 1462 1460 1459 1459 1460 1460 1461 1460 1460 1460 1459 1458 1457 1457 1456 1456 1456 1456 1456 1457 1459 1460 1462 1463 1465 1468 1469 1471 1473
1485 1484 1484 1485 1484 1483 1483 1486 1486 1483 1483 1476 1463 1466 1463 1456 1456 1457 1458 1459 1459 1460 1459 1459 1458 1458 1457 1456 1455 1455 1454 1454 1454 1455 1456 1457 1458 1460 1461 1463 1465 1466 1468 1469
1488 1488 1483 1483 1485 1486 1484 1485 1489 1486 1478 1471 1465 1465 1458 1455 1456 1457 1457 1458 1459 1458 1458 1457 1457 1456 1456 1455 1454 1454 1453 1453 1454 1454 1454 1455 1456 1457 1459 1461 1462 1463 1464 1465
1490 1488 1482 1482 1483 1485 1484 1484 1482 1487 1481 1477 1464 1457 1456 1455 1456 1456 1457 1457 1457 1457 1457 1456 1456 1456 1455 1454 1454 1453 1453 1453 1453 1453 1453 1454 1455 1456 1457 1458 1459 1461 1461 1463
1490 1491 1483 1482 1483 1484 1484 1483 1485 1486 1483 1474 1459 1457 1458 1456 1456 1456 1456 1456 1456 1456 1456 1455 1455 1455 1455 1454 1454 1454 1453 1453 1453 1453 1453 1453 1453 1454 1455 1456 1457 1458 1459 1460
1489 1492 1486 1482 1482 1481 1483 1483 1482 1483 1480 1481 1471 1461 1449 1451 1452 1454 1455 1455 1456 1456 1455 1455 1455 1455 1454 1454 1454 1453 1453 1453 1452 1452 1452 1452 1452 1453 1454 1454 1455 1456 1457 1458
1489 1491 1490 1481 1477 1477 1479 1479 1481 1485 1481 1476 1476 1466 1449 1450 1451 1453 1454 1454 1455 1455 1455 1455 1455 1455 1454 1454 1453 1453 1453 1453 1452 1452 1452 1452 1452 1452 1452 1453 1454 1455 1455 1456
1491 1491 1492 1482 1483 1481 1480 1477 1478 1480 1482 1480 1476 1465 1451 1451 1452 1453 1453 1453 1453 1454 1454 1454 1454 1454 1453 1453 1453 1453 1453 1452 1452 1452 1452 1451 1451 1451 1451 1452 1452 1453 1453 1454
1492 1491 1491 1488 1480 1477 1477 1475 1475 1479 1485 1477 1467 1458 1454 1452 1452 1452 1452 1452 1452 1452 1452 1453 1453 1453 1453 1452 1452 1452 1452 1452 1452 1451 1451 1451 1451 1450 1451 1451 1451 1451 1452 1452
1491 1490 1484 1479 1474 1472 1471 1470 1470 1474 1473 1474 1462 1456 1451 1450 1450 1450 1450 1450 1451 1451 1451 1451 1451 1451 1451 1451 1451 1451 1451 1451 1451 1450 1450 1450 1450 1450 1450 1450 1450 1450 1450 1450
1489 1488 1483 1478 1469 1467 1466 1463 1463 1464 1463 1461 1459 1454 1447 1447 1447 1447 1448 1448 1448 1448 1449 1449 1449 1449 1449 1449 1449 1449 1449 1449 1449 1449 1449 1449 1449 1449 1448 1448 1448 1448 1448 1448
1488 1487 1485 1480 1468 1466 1464 1452 1454 1455 1452 1454 1454 1449 1445 1444 1444 1444 1444 1445 1445 1446 1446 1447 1447 1447 1448 1448 1448 1448 1448 1448 1448 1448 1448 1448 1448 1447 1447 1447 1447 1447 1446 1446
1487 1486 1487 1482 1475 1473 1451 1443 1444 1446 1446 1445 1444 1442 1442 1441 1441 1441 1441 1441 1442 1443 1444 1444 1445 1445 1445 1446 1446 1446 1446 1446 1446 1446 1446 1447 1446 1446 1446 1446 1446 1445 1445 1445
1483 1485 1485 1483 1477 1462 1446 1443 1443 1445 1443 1439 1439 1438 1439 1439 1439 1438 1438 1438 1439 1440 1441 1441 1442 1442 1443 1443 1444 1444 1444 1444 1445 1445 1445 1445 1445 1445 1444 1444 1444 1444 1443 1443
1479 1482 1486 1480 1477 1467 1443 1440 1439 1444 1444 1434 1434 1435 1436 1437 1441 1437 1435 1435 1436 1437 1437 1438 1439 1439 1440 1440 1441 1441 1442 1442 1442 1442 1443 1443 1443 1443 1443 1443 1442 1442 1442 1441
1480 1481 1482 1479 1473 1455 1440 1439 1441 1449 1440 1432 1431 1432 1433 1434 1435 1434 1432 1432 1433 1433 1434 1435 1436 1436 1437 1437 1438 1438 1439 1439 1440 1440 1440 1441 1441 1441 1441 1441 1440 1440 1439 1439
1469 1471 1470 1469 1468 1455 1437 1438 1439 1436 1431 1430 1430 1430 1430 1431 1431 1430 1430 1429 1429 1430 1430 1431 1432 1432 1433 1434 1435 1435 1436 1436 1437 1437 1438 1438 1438 1438 1438 1438 1438 1437 1437 1436
1455 1453 1452 1451 1444 1433 1431 1430 1429 1429 1428 1428 1428 1428 1428 1428 1427 1427 1427 1427 1426 1426 1427 1427 1428 1429 1430 1430 1431 1431 1432 1433 1434 1434 1434 1435 1435 1435 1435 1435 1435 1434 1434 1434
1445 1443 1444 1441 1432 1428 1427 1426 1426 1425 1425 1425 1425 1425 1425 1424 1424 1424 1423 1423 1423 1423 1423 1424 1424 1425 1426 1427 1427 1428 1429 1429 1430 1430 1431 1432 1432 1432 1432 1432 1432 1432 1431 1431
1441 1440 1439 1435 1428 1425 1422 1421 1421 1420 1420 1420 1420 1421 1421 1421 1420 1420 1419 1419 1419 1419 1420 1420 1420 1421 1422 1423 1424 1424 1425 1425 1426 1427 1427 1428 1428 1429 1429 1429 1429 1429 1429 1428
1432 1433 1433 1426 1420 1420 1417 1416 1416 1415 1415 1415 1415 1415 1416 1416 1415 1415 1415 1415 1415 1415 1415 1416 1416 1417 1418 1419 1420 1421 1421 1422 1422 1423 1424 1424 1425 1425 1426 1426 1426 1426 1426 1425